Weather History for KSHN - March, 2014

Change the Weather History Date:

Saturday, March 29, 2014

  Actual Average Record
Temperature  
Mean Temperature 50 °F -  
Max Temperature 54 °F 56 °F 77 °F (2004)
Min Temperature 44 °F 36 °F 28 °F (1962)
Degree Days  
Heating Degree Days 16    
Moisture  
Dew Point 43 °F    
Average Humidity 87    
Maximum Humidity 93    
Minimum Humidity 72    
Precipitation  
Precipitation 1.06 in - - ()
Sea Level Pressure  
Sea Level Pressure 29.73 in    
Wind  
Wind Speed 9 mph (South)    
Max Wind Speed 17 mph    
Max Gust Speed 25 mph    
Visibility 8 miles    
Events Rain    
Averages and records for this station are not official NWS values.
T = Trace of Precipitation, MM = Missing Value Source: NWS Daily Summary

Daily Weather History Graph

Daily Weather History Graph

Search for Another Location

Airport or City:

Trip Planner

Search our weather history database for the weather conditions in past years. The results will help you decide how hot, cold, wet, or windy it might be!

Date:

Astronomy

Mar. 29, 2014 Rise Set
Actual Time 6:57 AM PDT 7:38 PM PDT
Civil Twilight 6:26 AM PDT 8:08 PM PDT
Nautical Twilight 5:49 AM PDT 8:45 PM PDT
Astronomical Twilight 5:11 AM PDT 9:24 PM PDT
Moon 6:13 AM PDT (3/29) 6:47 PM PDT (3/29)
Length of Visible Light 13h 42m
Length of Day
12h 40m
Waning Crescent, 1% of the Moon is Illuminated
Mar 29
Waning Crescent
Mar 30
New
Apr 7
First Quarter
Apr 15
Full
Apr 22
Last Quarter

Hourly Weather History & Observations

Time (PDT) Temp. Windchill Dew Point Humidity Pressure Visibility Wind Dir Wind Speed Gust Speed Precip Events Conditions
12:53 AM 46.9 °F - 43.0 °F 86% 29.70 in 10.0 mi South 5.8 mph - 0.00 in   Mostly Cloudy
1:53 AM 46.9 °F - 43.0 °F 86% 29.70 in 7.0 mi South 9.2 mph - 0.05 in Rain Light Rain
2:53 AM 46.0 °F 42.5 °F 44.1 °F 93% 29.70 in 10.0 mi SE 6.9 mph - 0.03 in   Overcast
3:53 AM 46.0 °F 41.9 °F 44.1 °F 93% 29.69 in 7.0 mi SSE 8.1 mph - 0.02 in Rain Light Rain
4:53 AM 46.0 °F 41.9 °F 44.1 °F 93% 29.68 in 7.0 mi SSE 8.1 mph - 0.03 in Rain Light Rain
5:16 AM 46.0 °F 41.9 °F 43.0 °F 89% 29.67 in 6.0 mi South 8.1 mph - 0.05 in Rain Light Rain
5:53 AM 46.0 °F 43.1 °F 44.1 °F 93% 29.67 in 10.0 mi SSE 5.8 mph - 0.05 in Rain Light Rain
6:38 AM 46.0 °F 43.1 °F 43.0 °F 89% 29.68 in 4.0 mi South 5.8 mph - 0.17 in Rain Rain
6:53 AM 46.0 °F 41.0 °F 42.1 °F 86% 29.69 in 7.0 mi South 10.4 mph - 0.20 in Rain Light Rain
7:53 AM 45.0 °F 39.3 °F 42.1 °F 90% 29.70 in 4.0 mi South 11.5 mph - 0.11 in Rain Light Rain
8:31 AM 45.0 °F 41.8 °F 42.1 °F 90% 29.70 in 10.0 mi SSW 5.8 mph - 0.04 in   Overcast
8:53 AM 45.0 °F 41.8 °F 43.0 °F 93% 29.70 in 10.0 mi ESE 5.8 mph - 0.04 in   Overcast
9:10 AM 45.0 °F 41.8 °F 43.0 °F 93% 29.69 in 10.0 mi SE 5.8 mph - N/A   Overcast
9:30 AM 46.0 °F 42.5 °F 43.0 °F 89% 29.69 in 10.0 mi SE 6.9 mph - N/A   Overcast
9:53 AM 46.9 °F - 43.0 °F 86% 29.70 in 10.0 mi SE 8.1 mph - N/A   Overcast
10:03 AM 46.9 °F - 43.0 °F 86% 29.69 in 10.0 mi SSE 8.1 mph - N/A   Overcast
10:53 AM 46.0 °F 40.6 °F 43.0 °F 89% 29.72 in 10.0 mi SSE 11.5 mph - 0.00 in   Overcast
11:46 AM 46.0 °F 41.4 °F 42.1 °F 86% 29.72 in 3.0 mi South 9.2 mph - 0.03 in Rain Rain
11:53 AM 46.0 °F 41.4 °F 42.1 °F 86% 29.74 in 4.0 mi South 9.2 mph - 0.05 in Rain Rain
12:02 PM 46.0 °F 41.0 °F 42.1 °F 86% 29.73 in 4.0 mi South 10.4 mph 18.4 mph 0.03 in Rain Rain
12:53 PM 48.9 °F - 45.0 °F 86% 29.74 in 10.0 mi SSE 9.2 mph - 0.06 in   Overcast
1:21 PM 48.9 °F - 45.0 °F 86% 29.74 in 9.0 mi SSE 13.8 mph - 0.00 in Rain Light Rain
1:53 PM 50.0 °F - 45.0 °F 83% 29.74 in 10.0 mi South 13.8 mph - 0.00 in Rain Light Rain
2:53 PM 48.9 °F - 45.0 °F 86% 29.75 in 4.0 mi SW 6.9 mph - 0.06 in Rain Light Rain
3:07 PM 48.9 °F - 45.0 °F 86% 29.74 in 1.5 mi Variable 5.8 mph - 0.02 in Rain Heavy Rain
3:16 PM 48.9 °F - 45.0 °F 86% 29.74 in 3.0 mi WSW 9.2 mph - 0.08 in Rain Light Rain
3:32 PM 52.0 °F - 46.0 °F 80% 29.74 in 10.0 mi SSW 9.2 mph 20.7 mph 0.08 in   Overcast
3:53 PM 52.0 °F - 45.0 °F 77% 29.75 in 10.0 mi SSW 15.0 mph 25.3 mph 0.08 in   Overcast
4:07 PM 52.0 °F - 45.0 °F 77% 29.74 in 10.0 mi SSW 17.3 mph 23.0 mph 0.00 in Rain Light Rain
4:20 PM 54.0 °F - 45.0 °F 72% 29.73 in 10.0 mi SSW 17.3 mph - 0.00 in   Scattered Clouds
4:53 PM 51.1 °F - 43.0 °F 74% 29.74 in 10.0 mi SSW 11.5 mph 21.9 mph 0.00 in   Mostly Cloudy
5:47 PM 48.2 °F - 42.8 °F 82% 29.73 in 2.5 mi South 13.8 mph 25.3 mph 0.00 in Rain Rain
5:49 PM 48.2 °F - 42.8 °F 82% 29.73 in 1.8 mi SSW 13.8 mph 25.3 mph 0.04 in Rain Heavy Rain
5:53 PM 46.9 °F - 42.1 °F 83% 29.75 in 1.0 mi SW 15.0 mph 25.3 mph 0.10 in Rain Heavy Rain
6:02 PM 46.0 °F 41.4 °F 41.0 °F 83% 29.74 in 2.0 mi SSW 9.2 mph 20.7 mph 0.07 in Rain Rain
6:10 PM 48.0 °F - 43.0 °F 83% 29.74 in 10.0 mi SSW 11.5 mph - 0.08 in Rain Light Rain
6:17 PM 46.9 °F - 42.1 °F 83% 29.74 in 10.0 mi SSW 10.4 mph - 0.08 in   Mostly Cloudy
6:53 PM 46.9 °F - 43.0 °F 86% 29.75 in 7.0 mi SSW 10.4 mph - 0.08 in Rain Light Rain
7:53 PM 46.0 °F 41.4 °F 42.1 °F 86% 29.75 in 10.0 mi SSW 9.2 mph - 0.03 in Rain Light Rain
8:23 PM 46.0 °F 42.5 °F 43.0 °F 89% 29.75 in 6.0 mi SSW 6.9 mph - 0.00 in Rain Light Rain
8:53 PM 46.0 °F 41.9 °F 43.0 °F 89% 29.77 in 4.0 mi SSW 8.1 mph - 0.03 in Rain Rain
9:53 PM 46.0 °F 41.0 °F 43.0 °F 89% 29.79 in 10.0 mi SW 10.4 mph - 0.02 in Rain Light Rain
10:09 PM 46.0 °F 40.2 °F 43.0 °F 89% 29.78 in 10.0 mi SSW 12.7 mph - 0.01 in Rain Light Rain
10:25 PM 46.0 °F 40.2 °F 43.0 °F 89% 29.78 in 10.0 mi SSW 12.7 mph - 0.01 in   Overcast
10:36 PM 46.0 °F 40.6 °F 43.0 °F 89% 29.78 in 10.0 mi SSW 11.5 mph - 0.01 in   Overcast
10:53 PM 46.0 °F 39.9 °F 43.0 °F 89% 29.80 in 10.0 mi SSW 13.8 mph - 0.01 in   Overcast
11:17 PM 45.0 °F 39.7 °F 42.1 °F 90% 29.80 in 10.0 mi SSW 10.4 mph - N/A   Mostly Cloudy
11:37 PM 45.0 °F 39.7 °F 42.1 °F 90% 29.80 in 6.0 mi SW 10.4 mph - 0.01 in Rain Light Rain
11:53 PM 44.1 °F 38.6 °F 42.1 °F 93% 29.82 in 10.0 mi SW 10.4 mph - 0.01 in   Overcast